Home   Weather   Abidjan   Past weeks

Flag for Cote d'Ivoire (Ivory Coast) Past Weather in Abidjan, Cote d'Ivoire (Ivory Coast) — Yesterday and Last 2 Weeks

Now
82 °F

Passing clouds.


Feels Like: 92 °F
Forecast: N/A
Wind: 5 mph from West

Location: Abidjan Airport

Current Time: Apr 29, 2017 at 11:53:30 pm

Latest Report: Apr 29, 2017 at 11:00 pm


Visibility: N/A

Pressure: 29.89 "Hg

Humidity: 89%

Dew Point: 79 °F

Location of AbidjanLocation

Past Weather in Abidjan — Graph

°F

Abidjan Temperature Yesterday

Maximum temperature yesterday: 90 °F (at 10:30 am)
Minimum temperature yesterday: 77 °F (at 8:00 pm)
Average temperature yesterday: 83 °F

High & Low Weather Summary for the Past Weeks

 TemperatureHumidityPressure
High91 °F (Apr 19, 1:00 pm)100% (Apr 15, 6:30 am)29.95 "Hg (Apr 15, 6:30 am)
Low73 °F (Apr 16, 8:30 am)59% (Apr 22, 11:00 am)29.71 "Hg (Apr 19, 5:00 pm)
Average83 °F83%29.84 "Hg
* Reported Apr 14 10:00 pm — Apr 29 10:30 pm, Abidjan, Weather by CustomWeather, © 2017

Note: Actual official high and low records may vary slightly from our data, if they occured in-between our weather recording intervals... More about our weather records

Advertising

Abidjan Weather History for the Previous 24 Hours

Scroll right to see more
 ConditionsComfort  
Time TempWeatherWind HumidityBarometerVisibility
10:30 pm
Sat, Apr 29
82 °FPassing clouds.6 mph89%29.89 "HgN/A
10:00 pm82 °FPassing clouds.7 mph84%29.89 "HgN/A
9:30 pm82 °FPassing clouds.5 mph89%29.89 "HgN/A
9:00 pm82 °FPassing clouds.3 mph84%29.89 "HgN/A
8:30 pm82 °FPassing clouds.6 mph84%29.86 "HgN/A
7:30 pm84 °FPassing clouds.6 mph79%29.86 "HgN/A
7:00 pm82 °FPassing clouds.6 mph79%29.86 "HgN/A
6:30 pm82 °FPassing clouds.6 mph84%29.86 "HgN/A
6:00 pm84 °FScattered clouds.7 mph74%29.83 "HgN/A
5:30 pm84 °FScattered clouds.9 mph74%29.83 "HgN/A
5:00 pm86 °FScattered clouds.7 mph75%29.83 "HgN/A
4:30 pm86 °FScattered clouds.9 mph70%29.83 "HgN/A
4:00 pm86 °FScattered clouds.13 mph79%29.83 "HgN/A
3:30 pm86 °FScattered clouds.10 mph79%29.83 "HgN/A
3:00 pm86 °FScattered clouds.9 mph79%29.83 "HgN/A
2:30 pm88 °FScattered clouds.9 mph70%29.86 "HgN/A
2:00 pm90 °FScattered clouds.9 mph67%29.86 "HgN/A
1:30 pm90 °FScattered clouds.8 mph67%29.86 "HgN/A
12:30 pm90 °FScattered clouds.5 mph67%29.89 "HgN/A
12:00 pm90 °FScattered clouds.5 mph67%29.89 "HgN/A
11:30 am90 °FScattered clouds.6 mph67%29.89 "HgN/A
11:00 am86 °FScattered clouds.5 mph79%29.92 "HgN/A
10:30 am86 °FScattered clouds.5 mph79%29.92 "Hg6 mi
10:00 am82 °FPassing clouds.7 mph84%29.92 "Hg6 mi
9:30 am82 °FPassing clouds.7 mph84%29.92 "Hg6 mi
9:00 am82 °FPassing clouds.7 mph84%29.95 "Hg6 mi
8:30 am79 °FScattered clouds.8 mph89%29.92 "Hg6 mi
7:30 am77 °FScattered clouds.7 mph94%29.89 "Hg5 mi
7:12 am77 °FScattered clouds.8 mph94%29.89 "Hg5 mi
7:00 am75 °FThunderstorms. Partly sunny.7 mph100%29.89 "Hg4 mi
6:30 am77 °FThunderstorms. Scattered clouds.8 mph94%29.89 "Hg5 mi
6:00 am77 °FPassing clouds.7 mph94%29.89 "Hg5 mi
5:30 am77 °FPassing clouds.6 mph94%29.86 "Hg5 mi
5:00 am77 °FPassing clouds.5 mph94%29.86 "Hg5 mi
4:30 am77 °FPassing clouds.6 mph94%29.86 "Hg5 mi
4:00 am77 °FPassing clouds.7 mph94%29.83 "Hg4 mi
3:30 am77 °FPassing clouds.6 mph94%29.83 "Hg4 mi
3:00 am77 °FPassing clouds.7 mph94%29.83 "Hg4 mi
2:30 am79 °FPassing clouds.6 mph89%29.83 "Hg4 mi
2:00 am79 °FPassing clouds.5 mph94%29.83 "Hg5 mi
1:00 am81 °FPassing clouds.8 mph89%29.86 "Hg5 mi
12:30 am81 °FPassing clouds.9 mph89%29.86 "Hg5 mi
12:00 am81 °FPassing clouds.9 mph89%29.89 "Hg5 mi
11:30 pm
Fri, Apr 28
79 °FLight rain. Passing clouds.9 mph89%29.89 "Hg5 mi
11:19 pm79 °FLight rain. Passing clouds.3 mph89%29.89 "Hg5 mi
11:00 pm79 °FPassing clouds.2 mph89%29.89 "HgN/A
Weather by CustomWeather, © 2017

See weather overviewHow to use our weather pages